Tracking 23726 objects as of 23-Sep-2021
HD Live streaming from Space Station
objects crossing your sky now

STARLINK-1558

Track STARLINK-1558 now!
10-day predictions
STARLINK-1558 is classified as:


NORAD ID: 46035
Int'l Code: 2020-055J
Perigee: 553.4 km
Apogee: 555.3 km
Inclination: 53.1 °
Period: 95.6 minutes
Semi major axis: 6925 km
RCS: Unknown
Launch date: August 7, 2020
Source: United States (US)
Launch site: AIR FORCE EASTERN TEST RANGE (AFETR)
aabbcc
Your satellite tracking list
Your tracking list is empty




NASA's NSSDC Master Catalog

Two Line Element Set (TLE):
1 46035U 20055J   21265.33364611  .00001271  00000-0  10419-3 0  9992
2 46035  53.0530 241.0898 0001318  58.7650 301.3468 15.06400306 63315
Source of the keplerian elements: AFSPC